Location: Bieg
(49.3499°N, 10.3835°E)
Time: 12:57:04
(UTC+00:00)

NOSS 3-4 (A) - Pass Details

Date: 23 May 2024
Orbit: 801 x 1410 km, 63.4° (Epoch: 04 June)

Event Time Altitude Azimuth Distance (km) Brightness Sun altitude
Rises 00:34:01 0° 314° (NW) 3,789 6.9 -17.9°
Reaches altitude 10° 00:36:38 10° 307° (NW) 2,920 6.2 -17.7°
Maximum altitude 00:43:03 40° 241° (WSW) 1,683 4.4 -17.3°
Enters shadow 00:47:12 23° 189° (S) 2,372 4.9 -17.1°
